Temp
71 72 69 69 64 60 53 59 66 65 66 72 76 73 69 70 70 63 75 78 78 76 77 78 79 80 80 79 79 79 78 78 79 79 79 79 79 79 79 79 79 80 81 81 81 81 81 81 81
71 71 69 65 61 51 55 64 64 67 72 74 75 73 71 71 78 74 75 78 77 76 77 76 79 80 80 79 78 78 78 78 78 78 79 79 79 79 79 79 80 80 81 81 81 81 80 80 80
73 74 67 62 56 52 55 66 68 70 71 71 70 77 73 74 79 76 77 76 76 75 77 76 79 79 80 79 78 78 78 78 78 79 79 79 79 78 78 79 79 80 81 80 80 80 79 79 79
74 70 66 60 55 64 63 68 71 71 72 72 71 69 74 81 81 81 78 77 74 76 78 78 79 79 79 79 79 78 78 78 78 79 78 78 78 78 78 78 79 80 80 80 80 79 79 79 79
69 64 56 53 56 65 70 70 71 68 66 71 75 69 69 79 81 79 77 77 73 74 77 77 79 79 79 79 79 78 78 78 78 78 78 78 78 78 78 78 79 80 80 79 79 79 78 78 78
67 62 53 50 56 67 69 71 73 69 69 72 73 71 70 80 78 78 79 74 74 74 77 78 79 79 79 79 79 78 78 78 78 78 78 78 78 78 78 78 78 79 79 79 79 78 78 77 77
63 58 54 53 58 65 69 72 69 69 68 71 71 72 73 78 80 80 77 75 75 75 77 78 76 77 79 78 78 78 77 77 77 77 77 77 78 77 77 77 78 78 78 78 78 78 77 77 77
63 60 52 54 58 60 70 72 74 69 69 76 76 70 71 77 81 79 76 74 72 73 74 76 76 75 75 75 78 78 77 77 77 77 77 77 77 77 77 76 77 77 77 77 77 77 77 77 77
65 56 52 55 59 61 73 72 77 76 71 74 74 77 82 82 80 76 72 72 71 73 71 72 75 76 76 74 76 77 78 78 77 77 77 76 74 75 76 76 76 77 77 77 77 77 77 77 77
61 54 57 63 64 62 68 74 74 74 72 73 74 78 82 82 79 75 72 71 72 72 71 71 72 72 73 78 74 74 75 75 75 75 75 74 73 73 75 76 77 77 77 77 77 77 77 78 76
56 57 62 67 67 67 67 72 76 74 71 73 74 77 79 79 78 76 76 77 75 74 72 71 72 72 72 73 73 74 73 76 75 74 73 73 73 72 73 72 73 74 75 75 76 76 75 75 75
56 65 65 66 71 68 69 73 75 76 75 80 81 78 77 76 76 77 78 78 76 74 72 71 71 71 71 71 72 73 73 73 72 72 72 71 70 70 71 71 72 72 72 74 74 74 74 75 76
58 63 67 70 70 71 74 73 71 75 83 86 82 80 76 73 74 77 79 78 75 75 71 70 71 70 71 71 72 72 72 72 72 71 72 71 69 69 70 71 71 71 71 71 72 73 74 73 72
64 63 64 67 65 67 68 74 74 76 83 79 83 82 75 78 79 74 74 73 74 74 71 71 71 71 71 70 70 70 71 71 71 70 71 72 69 69 71 70 70 71 70 71 71 72 70 68 69
63 58 62 63 62 65 67 65 71 81 80 79 80 80 80 72 71 71 71 71 73 73 72 71 71 71 71 71 71 70 70 71 70 70 71 72 72 71 71 71 70 68 69 68 68 68 67 67 68
57 56 51 60 62 67 68 57 73 80 77 74 79 71 67 67 69 72 71 70 72 72 71 73 77 73 72 72 72 72 71 71 70 71 71 73 72 71 70 69 66 66 66 66 66 67 66 64 64
53 47 47 58 62 64 60 60 69 76 77 72 69 67 67 66 68 69 70 69 69 70 71 71 72 73 72 72 72 72 72 71 70 70 70 71 72 71 69 66 65 66 65 65 66 63 64 62 62
47 47 49 52 60 61 55 60 63 67 71 71 66 66 66 65 64 67 68 68 67 67 67 68 69 69 70 70 70 69 69 69 69 69 68 69 70 69 65 64 64 64 63 63 63 62 61 61 61
53 51 50 56 62 58 58 58 60 63 64 63 63 63 63 63 65 66 66 66 66 65 65 65 65 65 67 67 68 67 65 67 65 66 68 67 67 67 64 63 63 62 62 61 62 61 60 60 60
54 50 51 58 60 58 56 55 60 60 61 60 59 60 61 62 62 63 64 64 63 63 63 63 62 62 63 64 65 65 64 63 64 64 65 66 66 65 64 62 61 61 61 60 60 60 60 59 59
50 50 51 54 57 56 53 54 54 58 59 59 59 61 61 59 59 61 62 62 62 60 60 61 61 61 62 63 64 63 63 63 62 62 62 64 66 65 64 62 61 60 60 60 60 60 60 57 58
47 57 57 56 51 46 53 42 50 51 52 55 55 56 57 58 59 60 60 59 60 60 61 60 59 59 62 61 61 61 61 60 60 60 61 62 64 65 64 62 62 61 60 60 60 60 58 58 57
54 59 54 53 47 43 47 40 45 51 47 49 52 55 55 55 56 57 57 58 59 60 59 59 59 58 58 58 58 57 58 59 60 60 61 61 62 63 64 62 61 60 60 60 60 59 58 59 58
59 55 49 44 42 35 42 40 42 42 49 49 51 52 53 54 54 55 57 58 57 58 58 58 56 56 57 57 56 55 55 56 58 59 58 59 59 60 62 62 61 60 60 60 60 60 59 58 57
54 44 36 35 34 34 44 40 38 46 49 49 48 50 51 51 51 52 52 53 54 55 55 57 55 54 55 55 55 55 54 54 55 56 57 57 59 60 59 60 59 60 59 60 59 58 58 57 57
46 44 36 32 31 34 45 35 36 49 51 51 51 50 51 50 51 51 50 51 51 52 52 52 51 50 52 52 52 53 53 54 54 54 55 56 57 58 59 59 60 59 59 59 58 58 58 57 57
46 42 44 37 34 34 36 39 46 48 46 48 47 48 46 46 48 48 50 50 49 49 49 48 48 49 49 50 50 49 50 50 51 52 53 54 56 58 59 59 58 58 59 59 58 57 57 57 56
50 51 41 36 31 29 35 35 36 40 41 44 43 43 44 46 47 47 48 48 48 48 48 48 48 48 49 49 50 51 48 49 49 49 50 51 53 55 55 57 58 58 58 58 57 56 56 56 56
47 43 40 38 34 29 29 34 41 39 41 40 41 44 43 43 43 44 44 45 45 46 46 46 47 47 47 48 48 47 47 48 49 48 48 49 51 52 53 55 57 57 56 57 55 55 55 55 54
48 42 39 31 34 30 30 32 44 41 42 42 42 43 43 43 42 42 42 43 44 44 45 45 46 48 49 50 49 48 49 47 46 46 47 49 48 50 51 53 55 56 56 56 55 54 54 53 52
MSLP
1010.25 1010.52 1010.88 1010.96 1011.40 1011.29 1011.48 1010.28 1009.50 1009.58 1009.25 1008.78 1008.52 1008.57 1009.21 1009.31 1009.47 1009.98 1009.56 1009.61 1009.35 1009.79 1010.14 1010.83 1011.06 1011.34 1011.52 1011.62 1011.78 1012.00 1012.29 1012.57 1012.86 1013.13 1013.44 1013.78 1014.12 1014.40 1014.60 1014.80 1014.95 1014.97 1014.98 1014.99 1015.07 1015.26 1015.42 1015.53 1015.60
1010.26 1010.89 1011.09 1010.88 1011.24 1011.98 1011.32 1009.88 1009.13 1009.56 1009.18 1008.89 1008.69 1008.90 1008.98 1009.01 1008.81 1009.19 1009.46 1009.95 1009.75 1009.90 1010.23 1010.69 1011.17 1011.48 1011.72 1011.83 1012.02 1012.24 1012.41 1012.75 1013.05 1013.29 1013.60 1013.89 1014.22 1014.50 1014.77 1014.96 1015.10 1015.20 1015.25 1015.29 1015.37 1015.51 1015.68 1015.78 1015.86
1010.16 1010.26 1010.92 1011.06 1011.46 1011.63 1011.02 1009.66 1008.84 1009.57 1009.20 1008.86 1008.80 1008.59 1009.03 1009.07 1008.70 1009.07 1009.13 1009.87 1009.91 1010.25 1010.47 1010.63 1011.03 1011.47 1011.69 1011.85 1012.07 1012.34 1012.66 1012.88 1013.21 1013.46 1013.68 1014.03 1014.37 1014.61 1014.90 1015.11 1015.25 1015.37 1015.44 1015.47 1015.52 1015.60 1015.70 1015.78 1015.88
1009.86 1010.53 1011.11 1010.95 1011.07 1010.31 1010.06 1008.92 1008.80 1009.05 1009.19 1009.07 1009.08 1009.26 1009.01 1008.39 1008.42 1008.67 1009.03 1009.51 1010.00 1010.51 1010.62 1010.95 1011.25 1011.52 1011.79 1011.94 1012.19 1012.43 1012.75 1012.97 1013.10 1013.44 1013.67 1013.98 1014.39 1014.63 1014.87 1015.12 1015.23 1015.36 1015.49 1015.57 1015.61 1015.67 1015.74 1015.85 1015.97
1009.88 1010.80 1011.65 1011.51 1010.93 1010.00 1009.35 1008.57 1008.29 1009.22 1009.84 1009.22 1008.78 1009.18 1008.97 1008.23 1008.53 1008.92 1009.51 1009.59 1010.02 1010.67 1010.83 1011.20 1011.25 1011.70 1011.97 1012.19 1012.38 1012.57 1012.84 1013.12 1013.33 1013.44 1013.65 1013.96 1014.36 1014.65 1014.79 1014.98 1015.13 1015.33 1015.53 1015.60 1015.69 1015.79 1015.88 1015.94 1016.01
1010.34 1011.37 1012.13 1011.87 1011.00 1009.62 1008.63 1008.60 1008.76 1009.29 1009.47 1009.45 1009.20 1008.86 1008.50 1008.15 1008.40 1009.10 1009.68 1010.24 1010.95 1011.10 1011.16 1011.50 1011.73 1011.96 1012.13 1012.31 1012.65 1012.98 1013.19 1013.32 1013.44 1013.65 1013.81 1013.94 1014.31 1014.73 1014.88 1015.06 1015.24 1015.41 1015.53 1015.62 1015.71 1015.81 1015.92 1015.99 1016.01
1010.62 1011.68 1012.00 1011.57 1010.78 1009.59 1008.56 1008.14 1009.00 1009.24 1009.84 1009.02 1008.88 1008.71 1008.15 1008.51 1008.84 1009.46 1010.27 1010.88 1011.09 1011.70 1011.96 1012.07 1012.42 1012.51 1012.59 1012.80 1013.02 1013.39 1013.52 1013.62 1013.75 1013.92 1014.00 1014.16 1014.37 1014.66 1015.03 1015.18 1015.30 1015.39 1015.53 1015.61 1015.74 1015.84 1015.90 1015.88 1015.90
1010.63 1011.68 1012.03 1011.38 1010.72 1009.64 1008.65 1008.15 1008.79 1008.86 1009.66 1008.74 1008.67 1008.48 1008.14 1008.74 1009.05 1009.87 1010.75 1011.34 1011.72 1012.05 1012.50 1012.66 1012.68 1013.01 1013.30 1013.29 1013.22 1013.39 1013.63 1013.79 1013.99 1014.14 1014.25 1014.38 1014.51 1014.78 1015.02 1015.17 1015.28 1015.34 1015.46 1015.54 1015.61 1015.67 1015.66 1015.66 1015.72
1010.39 1011.60 1012.04 1011.14 1010.38 1009.78 1008.86 1008.33 1008.40 1008.74 1009.42 1009.29 1008.87 1008.26 1007.50 1008.20 1009.16 1010.20 1010.77 1011.41 1011.74 1012.15 1012.59 1012.87 1012.96 1013.02 1013.12 1013.30 1013.52 1013.72 1013.88 1014.17 1014.24 1014.33 1014.49 1014.60 1014.81 1014.91 1015.01 1015.15 1015.24 1015.35 1015.36 1015.44 1015.49 1015.51 1015.54 1015.55 1015.50
1010.77 1011.66 1011.46 1010.42 1009.96 1009.50 1008.96 1008.27 1008.78 1008.82 1009.74 1009.56 1009.51 1009.72 1008.65 1009.01 1009.08 1010.03 1010.47 1010.72 1011.28 1012.04 1012.35 1012.57 1012.61 1012.88 1013.03 1013.16 1013.45 1013.64 1013.87 1014.13 1014.42 1014.60 1014.71 1014.82 1014.92 1015.03 1015.17 1015.25 1015.22 1015.23 1015.33 1015.41 1015.43 1015.43 1015.42 1015.42 1015.45
1010.76 1011.01 1010.72 1009.96 1009.93 1009.66 1009.47 1008.58 1007.74 1008.70 1009.34 1009.06 1009.03 1008.99 1008.96 1009.28 1009.32 1009.96 1009.92 1010.11 1010.33 1011.32 1011.87 1012.29 1012.79 1013.15 1013.34 1013.40 1013.63 1013.87 1013.97 1014.20 1014.38 1014.60 1014.80 1014.94 1015.03 1015.17 1015.21 1015.29 1015.31 1015.27 1015.23 1015.25 1015.22 1015.33 1015.38 1015.35 1015.39
1010.46 1010.23 1010.18 1009.72 1009.46 1009.47 1009.33 1008.67 1008.66 1008.18 1008.13 1008.43 1008.11 1008.38 1008.91 1009.26 1009.54 1009.64 1009.85 1009.95 1010.45 1011.05 1012.08 1012.54 1012.79 1012.77 1012.77 1012.99 1013.48 1014.15 1013.93 1013.95 1014.15 1014.46 1014.73 1014.86 1015.07 1015.21 1015.27 1015.19 1015.15 1015.15 1015.09 1015.03 1015.14 1015.13 1015.26 1015.24 1015.22
1010.25 1009.87 1009.83 1009.38 1009.19 1008.76 1008.86 1009.17 1008.96 1008.56 1007.37 1007.69 1008.26 1008.17 1009.00 1009.37 1009.38 1008.91 1008.99 1009.59 1010.42 1011.11 1012.03 1012.42 1012.90 1013.00 1013.19 1013.40 1013.58 1013.91 1013.67 1013.69 1013.85 1014.12 1014.51 1014.76 1015.01 1015.19 1015.02 1015.03 1015.04 1015.03 1015.00 1015.16 1015.24 1015.13 1015.22 1015.45 1015.45
1009.83 1009.71 1009.56 1009.32 1009.17 1009.00 1008.65 1008.52 1009.33 1008.28 1007.93 1009.07 1008.50 1008.91 1009.09 1009.23 1009.34 1009.62 1009.59 1009.85 1010.20 1010.78 1011.31 1011.96 1012.45 1012.91 1012.95 1013.65 1013.46 1013.80 1013.62 1013.52 1014.00 1014.36 1014.47 1014.48 1014.60 1014.84 1014.97 1014.99 1015.01 1015.05 1014.95 1015.25 1015.01 1015.11 1015.42 1015.71 1015.65
1009.87 1009.87 1009.51 1009.20 1009.25 1009.00 1008.68 1008.64 1007.96 1007.71 1007.71 1008.17 1009.30 1009.17 1008.67 1010.14 1010.22 1009.58 1009.98 1009.84 1009.82 1010.18 1011.12 1011.68 1012.44 1012.86 1013.28 1013.37 1013.40 1013.62 1013.77 1013.74 1013.95 1014.10 1014.24 1014.55 1014.42 1014.69 1014.83 1014.97 1015.20 1014.97 1015.04 1015.37 1015.45 1015.51 1015.64 1015.91 1015.86
1010.48 1010.43 1010.22 1009.90 1009.45 1009.10 1008.80 1008.81 1007.92 1007.25 1008.22 1008.89 1009.20 1009.82 1010.75 1011.16 1011.21 1011.02 1011.19 1010.41 1010.26 1010.44 1010.90 1011.66 1012.42 1012.59 1013.02 1013.32 1013.73 1013.65 1013.61 1013.77 1013.87 1014.13 1014.38 1014.49 1014.55 1014.67 1014.79 1015.13 1015.19 1015.27 1015.34 1015.44 1015.70 1015.95 1016.11 1016.13 1015.99
1011.63 1011.30 1010.86 1010.29 1009.67 1009.61 1009.62 1009.12 1008.43 1008.06 1008.01 1009.09 1010.10 1010.79 1011.64 1011.83 1011.77 1011.97 1011.93 1011.40 1011.37 1011.86 1011.35 1011.65 1012.26 1012.69 1013.15 1013.70 1013.53 1013.48 1013.59 1013.86 1014.27 1014.26 1014.48 1014.58 1014.52 1014.71 1014.74 1015.48 1015.59 1015.48 1015.64 1015.68 1016.00 1016.24 1016.26 1016.39 1016.07
1012.05 1011.67 1011.22 1010.88 1010.26 1010.22 1010.54 1010.08 1010.08 1009.28 1009.11 1009.58 1010.26 1011.74 1012.53 1012.99 1013.17 1013.62 1013.13 1012.72 1012.94 1012.81 1012.85 1013.26 1013.38 1013.52 1013.40 1013.71 1013.80 1013.96 1014.10 1014.27 1014.38 1014.25 1014.49 1014.66 1014.53 1014.81 1015.16 1015.28 1015.78 1015.83 1015.92 1016.24 1016.42 1016.62 1016.69 1016.73 1016.26
1011.58 1011.65 1011.46 1010.84 1010.25 1010.32 1010.59 1011.61 1011.88 1010.74 1010.73 1011.57 1011.78 1012.99 1013.55 1014.44 1014.52 1014.60 1014.69 1014.47 1014.03 1013.84 1014.08 1014.45 1014.16 1014.57 1014.19 1014.36 1014.47 1014.44 1014.68 1014.76 1014.93 1014.75 1014.42 1014.47 1014.66 1014.90 1015.07 1015.24 1015.67 1015.84 1016.31 1016.79 1016.68 1016.98 1017.03 1016.86 1016.48
1011.47 1011.57 1011.40 1010.82 1010.47 1010.60 1011.72 1013.32 1013.05 1012.98 1013.43 1013.79 1014.37 1014.75 1015.08 1015.61 1015.53 1015.73 1015.51 1015.34 1015.42 1015.33 1015.45 1015.60 1015.82 1015.78 1015.51 1015.34 1015.27 1015.09 1015.44 1015.60 1015.52 1015.32 1014.94 1014.83 1014.74 1014.73 1014.88 1015.11 1015.73 1016.03 1016.41 1016.64 1016.73 1017.26 1017.23 1017.13 1016.98
1011.07 1011.23 1011.11 1011.13 1011.13 1011.52 1012.35 1014.05 1014.90 1015.44 1015.57 1015.72 1016.24 1016.70 1016.62 1017.14 1017.18 1017.22 1017.16 1017.07 1016.83 1016.85 1016.81 1016.78 1016.63 1016.43 1016.32 1016.23 1015.96 1015.67 1015.53 1015.89 1016.12 1015.94 1015.87 1015.45 1015.16 1014.96 1015.05 1015.19 1015.22 1015.55 1016.02 1016.39 1016.66 1017.07 1017.42 1017.41 1017.16
1010.91 1010.93 1011.15 1011.54 1012.17 1013.05 1013.36 1015.47 1017.06 1017.76 1017.80 1017.82 1018.36 1018.26 1018.46 1018.62 1018.83 1018.93 1019.02 1019.14 1019.05 1019.01 1018.42 1018.05 1017.92 1017.68 1017.57 1017.28 1016.77 1016.36 1015.95 1016.02 1016.16 1016.14 1016.09 1015.92 1015.69 1015.39 1014.91 1014.89 1015.15 1015.31 1015.22 1015.21 1015.56 1015.62 1016.27 1016.08 1016.87
1011.22 1011.23 1012.11 1012.66 1013.65 1014.46 1015.12 1016.44 1018.90 1018.96 1019.59 1019.96 1020.04 1019.86 1020.09 1020.32 1020.33 1020.46 1020.47 1020.60 1020.56 1020.25 1019.98 1019.83 1019.45 1019.02 1018.97 1018.42 1017.99 1018.00 1016.94 1016.56 1016.40 1016.02 1015.67 1015.44 1015.20 1015.17 1015.19 1015.05 1014.96 1015.14 1015.33 1015.47 1015.48 1015.68 1015.55 1015.76 1015.99
1011.49 1012.30 1013.61 1014.56 1015.49 1016.61 1017.27 1018.31 1020.53 1020.75 1021.31 1021.60 1021.42 1021.41 1021.61 1021.66 1021.66 1021.56 1021.48 1021.23 1021.18 1021.14 1021.02 1020.77 1020.35 1019.96 1019.59 1019.41 1019.16 1018.91 1017.98 1017.44 1017.29 1017.07 1016.54 1015.98 1015.44 1015.20 1015.15 1015.15 1015.00 1014.97 1015.06 1015.49 1015.20 1015.11 1015.17 1015.42 1015.66
1012.24 1013.86 1015.41 1016.62 1017.36 1018.38 1018.45 1019.71 1022.36 1022.23 1022.44 1022.72 1022.62 1022.63 1022.77 1022.66 1022.47 1022.42 1022.26 1022.38 1022.37 1022.07 1021.78 1021.53 1021.29 1020.78 1020.35 1020.04 1019.87 1019.57 1018.45 1018.29 1018.33 1017.72 1017.20 1016.61 1016.31 1015.53 1015.01 1015.12 1015.13 1014.77 1014.92 1014.83 1014.86 1015.05 1014.97 1015.09 1015.36
1013.49 1014.77 1016.24 1017.62 1018.87 1019.35 1019.42 1021.36 1022.75 1023.21 1023.30 1023.44 1023.56 1023.71 1023.50 1023.42 1023.49 1023.47 1023.54 1023.34 1023.01 1022.41 1022.11 1022.12 1022.08 1021.88 1021.44 1020.97 1020.34 1019.71 1019.49 1019.30 1018.79 1018.07 1017.44 1016.80 1016.32 1015.85 1015.56 1015.27 1014.95 1014.76 1014.61 1014.64 1014.79 1014.76 1014.60 1014.66 1014.79
1013.99 1015.29 1016.37 1018.06 1019.68 1020.26 1021.42 1022.72 1023.15 1023.63 1023.91 1024.12 1024.30 1024.30 1024.39 1024.33 1024.14 1023.98 1023.82 1023.66 1023.35 1023.31 1023.32 1022.99 1022.61 1022.00 1021.51 1021.09 1020.79 1020.44 1019.95 1019.48 1019.03 1018.34 1017.78 1017.23 1016.65 1016.13 1015.50 1015.11 1014.97 1014.91 1014.84 1014.77 1014.81 1014.86 1014.75 1014.68 1014.78
1014.27 1015.79 1017.07 1018.58 1020.49 1021.55 1021.91 1022.58 1022.76 1023.79 1024.46 1024.67 1024.76 1024.94 1024.90 1024.82 1024.68 1024.44 1024.14 1024.00 1023.76 1023.58 1023.29 1022.94 1022.35 1021.60 1021.30 1021.07 1020.75 1020.22 1019.84 1019.45 1018.99 1018.42 1017.86 1017.30 1016.76 1016.26 1015.74 1015.23 1014.78 1014.55 1014.55 1014.65 1014.74 1014.87 1014.83 1014.72 1014.79
1015.69 1016.66 1018.15 1019.51 1020.82 1021.91 1022.77 1022.82 1022.67 1023.86 1024.72 1025.27 1025.46 1025.43 1025.42 1025.31 1025.19 1025.13 1024.91 1024.63 1024.21 1023.69 1023.15 1022.61 1022.21 1021.86 1021.33 1020.81 1020.27 1019.86 1019.46 1019.08 1018.72 1018.33 1017.86 1017.40 1016.82 1016.26 1015.72 1015.26 1014.82 1014.51 1014.45 1014.43 1014.53 1014.58 1014.66 1014.57 1014.78
1016.70 1017.73 1018.84 1020.31 1021.74 1022.47 1022.94 1023.28 1023.52 1024.27 1024.93 1025.37 1025.73 1025.85 1025.78 1025.80 1025.76 1025.53 1025.20 1024.79 1024.44 1024.12 1023.70 1023.27 1022.72 1022.12 1021.50 1020.97 1020.51 1020.07 1019.56 1019.12 1018.63 1018.11 1017.59 1017.08 1016.56 1016.04 1015.59 1015.08 1014.65 1014.32 1014.10 1014.11 1014.12 1014.33 1014.58 1014.62 1014.72
Wind_Speed
2 5 2 1 5 6 4 7 2 3 1 1 5 5 3 3 1 5 4 1 11 11 8 8 11 12 13 15 17 17 16 15 15 14 14 13 12 12 11 10 8 8 9 9 8 8 7 7 7
5 4 2 1 6 5 6 6 8 5 1 6 5 2 5 3 2 2 3 3 8 10 8 8 12 12 13 15 16 16 16 16 15 15 14 14 12 11 11 9 7 7 7 7 7 6 6 6 5
6 2 3 4 4 3 4 6 9 4 9 4 3 3 3 4 1 5 5 8 8 8 8 9 13 13 15 16 16 15 15 15 15 14 14 13 11 10 9 7 6 6 6 5 5 5 4 4 4
4 4 5 6 3 5 4 9 7 2 9 4 4 4 5 3 1 3 11 12 9 9 7 9 12 13 14 16 16 15 15 15 15 15 14 13 12 10 9 8 7 6 6 5 4 3 2 2 3
4 3 5 3 4 4 5 8 6 5 1 5 3 5 2 4 7 11 9 10 10 9 9 7 14 13 13 15 15 14 14 14 13 14 14 13 11 9 9 7 7 6 5 4 2 1 2 3 4
4 4 5 1 3 5 4 5 4 2 3 4 3 0 4 2 6 7 7 7 5 7 9 7 11 11 12 13 12 12 12 12 12 12 12 12 11 9 7 7 5 4 4 3 2 1 2 4 5
6 4 5 3 3 6 2 3 4 4 2 5 1 3 3 5 8 9 8 7 7 5 5 5 3 6 9 9 10 10 10 10 10 10 10 10 10 9 7 6 5 4 3 2 1 2 3 4 5
6 5 2 2 2 3 4 2 3 6 3 4 3 4 5 3 13 11 9 7 6 4 4 4 4 4 3 2 8 10 9 9 8 8 8 8 9 8 7 7 6 5 4 3 3 3 4 4 5
4 6 1 3 5 2 5 7 5 5 5 3 2 5 3 10 13 8 8 3 4 4 4 4 5 5 6 3 4 6 9 7 6 6 6 5 2 4 5 6 7 6 6 5 5 5 5 5 5
5 5 8 3 1 2 5 2 3 7 4 3 3 5 9 10 12 10 9 10 8 7 5 6 6 6 5 4 4 4 4 3 2 2 2 2 3 3 3 5 7 7 7 6 6 6 6 5 2
3 6 6 5 4 1 1 7 4 4 5 6 10 7 8 10 10 11 12 12 14 10 7 8 4 3 4 3 3 2 1 3 3 4 2 2 1 2 2 2 2 2 4 3 3 2 2 3 1
3 5 6 3 6 5 3 2 8 4 4 1 7 4 7 9 11 12 13 13 12 12 10 5 6 6 6 3 3 2 2 3 2 2 4 2 2 2 3 2 3 3 2 3 2 1 2 1 2
4 4 7 7 7 9 7 4 8 15 20 10 4 3 6 3 7 8 8 5 9 11 10 8 7 5 3 3 2 3 3 3 4 4 4 3 3 3 3 3 3 3 2 2 3 2 1 3 4
5 3 4 6 5 6 5 7 9 9 14 2 7 13 4 9 11 5 3 3 7 9 12 9 8 6 4 3 4 4 3 3 1 2 4 6 4 4 3 3 3 3 3 3 1 2 3 3 3
2 3 3 1 3 5 4 1 9 14 9 11 8 13 7 4 8 2 3 4 6 7 10 11 8 6 5 4 4 3 3 3 3 4 4 5 4 3 2 2 2 1 1 2 2 4 3 3 3
4 5 3 5 2 4 7 9 11 14 7 3 11 6 6 8 8 8 4 5 5 7 9 8 5 5 4 4 3 3 3 3 4 3 2 1 2 3 1 2 3 2 3 2 3 2 3 3 3
7 1 1 7 3 2 0 8 8 9 14 12 7 6 6 8 14 12 12 12 12 8 10 10 7 6 6 3 2 2 2 1 3 1 2 3 1 1 2 2 2 3 3 3 2 3 2 3 4
3 2 2 3 3 5 3 11 10 8 7 11 14 8 10 11 14 12 13 13 12 11 11 8 5 5 5 3 3 2 2 2 2 1 2 2 3 5 5 4 4 3 4 4 3 4 4 2 3
1 1 3 4 8 3 3 8 11 17 9 7 12 11 14 13 12 14 13 13 13 15 14 12 11 8 5 4 3 3 2 2 3 2 4 4 5 6 6 5 5 5 5 3 4 2 4 6 5
4 3 5 6 2 4 7 9 13 22 12 11 11 13 15 14 16 16 15 16 15 13 12 12 10 8 6 3 2 2 2 2 2 2 2 3 5 6 6 7 5 5 4 5 5 3 1 1 4
3 5 4 5 4 3 2 6 16 12 19 17 16 14 17 15 14 14 17 17 17 17 15 14 13 13 10 6 2 3 4 3 3 3 3 3 2 4 6 7 7 7 5 4 4 3 2 1 1
2 3 2 3 4 2 3 4 13 10 17 18 15 15 15 16 16 16 17 18 17 15 15 16 15 14 11 11 7 6 2 2 1 1 1 3 3 1 5 8 6 6 5 7 5 6 5 5 2
2 3 4 3 4 4 10 8 8 6 13 14 14 17 17 16 17 17 16 15 15 15 14 13 13 15 14 13 11 7 6 2 1 1 1 3 2 4 4 5 6 5 3 3 5 6 5 3 2
2 5 8 5 4 5 5 6 9 5 5 10 14 17 16 15 15 15 14 14 14 13 13 12 13 12 14 12 11 10 9 9 7 7 4 4 2 2 3 3 4 5 5 6 4 3 4 4 3
8 7 4 4 5 4 2 8 3 6 11 10 11 12 11 11 13 14 16 15 13 13 13 12 12 12 12 12 12 11 12 10 8 7 6 7 4 3 5 5 6 4 5 4 4 4 4 5 4
4 5 7 3 3 3 7 4 1 5 7 7 8 7 10 11 9 10 9 9 10 12 13 13 11 8 6 8 11 11 10 7 7 8 8 7 7 6 5 6 5 6 5 5 5 4 4 5 5
1 4 3 8 3 4 4 3 3 4 7 7 8 8 7 7 7 9 11 11 10 8 6 7 8 7 6 6 5 7 6 7 9 11 9 7 8 8 8 6 6 6 5 5 4 4 4 3 3
4 3 3 4 4 2 1 4 5 4 3 6 8 7 7 7 8 9 11 12 10 8 8 8 8 10 10 10 9 9 6 8 8 8 10 10 9 9 9 8 6 5 4 4 3 4 5 4 4
5 4 6 5 4 6 4 6 5 7 4 3 5 6 6 6 8 9 8 8 8 9 10 11 12 12 13 12 12 13 13 14 12 10 9 8 8 9 10 9 7 5 6 5 5 5 8 6 5
3 3 4 7 3 1 4 5 5 7 5 2 5 6 5 5 6 6 7 7 8 7 9 9 9 12 15 15 14 15 15 13 12 12 12 10 9 8 8 9 9 7 6 5 5 4 4 3 4
Wind_Direction
150 148 130 64 54 65 306 279 290 108 65 114 123 110 133 190 346 255 4 170 126 129 132 144 144 145 135 127 123 122 121 120 120 118 118 121 128 135 137 138 141 142 136 125 119 118 113 109 113
132 113 33 55 76 46 288 273 269 40 312 127 89 86 45 313 178 92 110 118 121 127 137 139 149 145 138 130 126 126 130 129 128 126 127 130 132 136 138 134 136 140 131 120 113 104 97 97 100
161 167 76 96 133 115 272 279 267 29 35 27 76 22 47 304 125 157 131 125 117 125 147 149 153 151 145 138 133 133 134 134 134 134 135 134 134 133 132 130 127 133 130 126 118 105 105 109 106
144 14 19 77 115 194 224 274 249 100 351 24 173 49 302 242 265 149 139 135 128 141 143 168 157 155 151 146 143 142 143 144 144 145 142 142 143 140 135 141 147 149 147 140 134 131 111 66 50
47 62 49 62 327 280 283 319 120 86 161 301 279 159 255 309 82 128 149 144 140 147 153 169 160 161 156 153 152 152 151 150 152 152 151 151 153 151 151 150 144 149 150 148 142 110 34 17 12
41 93 64 309 255 281 42 4 76 86 198 273 296 19 266 54 116 147 137 108 71 123 156 166 167 164 160 158 158 157 155 156 158 159 160 160 162 169 165 164 162 161 167 172 173 75 3 352 348
109 80 172 180 343 330 15 57 4 189 77 276 55 213 248 94 100 104 82 65 74 65 149 162 132 167 162 159 156 160 161 163 164 166 166 166 171 177 184 187 194 190 197 225 284 341 337 331 323
106 91 114 191 159 245 296 87 165 119 216 291 355 25 324 78 113 96 80 78 79 89 77 164 131 75 65 136 166 169 171 169 170 173 173 172 176 182 192 201 214 215 221 241 268 289 290 294 312
120 65 200 230 169 135 302 37 342 52 118 298 304 330 289 116 112 100 106 125 134 139 108 89 136 166 176 146 182 178 178 176 174 181 185 180 172 195 204 206 218 230 233 241 252 266 283 296 315
94 120 214 227 202 33 319 112 131 95 339 275 246 272 273 163 140 154 166 196 180 180 165 168 168 177 170 168 169 163 173 152 171 190 207 186 200 210 213 231 231 231 240 253 264 279 294 304 296
158 174 200 262 133 78 235 309 28 104 170 200 205 217 185 184 168 177 200 200 193 171 178 195 165 144 165 163 163 177 131 182 196 211 212 225 233 246 239 243 259 258 254 247 259 306 324 309 310
138 214 166 246 163 156 205 143 330 310 260 288 221 196 177 186 188 195 196 199 179 176 177 157 163 192 192 179 158 157 175 178 183 203 208 198 219 241 251 238 234 234 228 244 244 242 316 355 56
179 243 175 237 245 248 138 91 194 203 285 291 291 266 218 289 273 241 232 161 159 175 158 175 185 210 218 186 136 192 188 180 197 195 214 196 213 232 232 248 250 238 255 273 268 271 63 66 47
211 217 224 248 242 256 202 185 161 219 192 85 286 282 173 209 215 258 253 220 166 157 157 164 185 197 182 190 159 203 204 203 222 234 228 211 200 221 244 272 264 269 245 250 213 155 101 61 34
298 313 329 230 25 258 160 105 174 257 165 114 305 280 343 76 345 354 33 91 140 134 142 168 169 185 188 183 196 201 214 181 217 224 225 236 216 232 201 204 274 20 48 75 55 66 64 54 13
32 44 37 315 13 311 116 255 234 182 144 152 222 118 42 25 43 36 17 75 80 115 132 127 163 157 153 181 197 198 200 210 222 227 279 274 156 185 130 44 64 52 76 119 81 60 65 51 17
8 224 55 337 257 31 47 257 265 261 201 138 150 111 89 68 45 34 39 47 55 64 83 95 107 127 139 151 176 194 175 237 313 324 66 348 352 139 102 70 54 68 78 63 71 53 92 23 353
243 21 332 246 297 101 240 267 338 325 124 169 134 113 87 62 44 31 35 47 53 50 54 56 77 56 85 85 75 57 58 47 29 52 113 129 112 100 109 106 77 68 63 48 44 57 46 26 351
115 243 258 240 264 192 285 20 7 1 41 107 95 76 74 55 53 46 38 42 54 47 45 33 42 11 27 40 36 34 13 35 31 13 99 107 115 120 117 98 86 76 77 63 49 70 33 18 1
162 195 256 281 283 127 95 33 17 25 14 68 58 61 65 57 47 40 40 42 41 49 47 41 36 21 23 7 28 84 77 49 38 346 79 118 128 128 123 117 107 98 99 74 57 31 131 41 22
210 186 211 196 354 70 133 70 27 16 38 51 51 60 62 61 58 45 38 32 32 27 23 23 17 17 16 16 19 46 81 52 24 1 355 352 87 125 116 117 131 137 151 131 129 104 55 24 288
94 199 137 57 82 205 349 162 44 22 44 50 50 51 54 50 47 45 42 33 28 26 28 26 20 18 10 4 10 17 60 118 201 228 290 333 350 78 143 150 153 156 165 161 168 160 178 150 195
110 57 39 58 91 72 346 72 333 37 42 38 39 50 48 47 51 51 46 40 33 27 30 24 25 27 14 13 16 350 5 13 268 262 200 201 205 226 186 170 167 172 188 175 170 176 165 167 145
76 71 43 48 71 44 313 105 18 29 44 66 57 53 52 50 50 49 46 40 33 26 23 21 20 19 13 9 8 9 16 356 351 331 306 289 293 273 246 218 196 193 187 204 194 174 161 160 173
61 52 350 349 18 206 263 61 8 44 53 56 66 62 50 43 44 40 34 24 15 14 12 10 11 8 5 4 359 355 10 4 342 338 329 324 308 287 237 218 218 207 213 210 186 193 185 179 186
64 126 148 232 181 206 25 86 165 72 72 59 55 50 51 44 40 40 29 17 7 6 7 358 354 340 343 350 351 351 354 343 335 340 337 326 313 297 289 273 255 233 222 216 214 222 199 192 205
164 56 166 106 14 76 137 93 141 89 49 34 28 30 32 27 22 16 6 6 359 352 338 328 323 326 323 331 323 310 322 334 327 324 325 324 322 316 306 283 258 267 266 247 233 247 239 227 238
94 135 46 12 138 152 79 176 203 151 29 8 12 5 357 5 1 357 359 352 345 333 322 317 321 334 335 331 330 329 317 333 319 312 312 312 312 320 321 312 292 277 275 276 268 277 279 260 269
345 27 50 106 110 157 158 254 177 152 150 27 347 343 339 351 355 340 333 325 315 323 333 334 337 335 333 332 334 336 330 327 319 312 303 295 302 310 314 310 303 284 273 264 271 258 263 254 271
74 104 99 112 219 99 151 264 113 129 140 58 337 312 324 330 320 311 308 310 323 326 333 328 325 329 330 327 324 321 317 312 312 312 307 306 304 299 298 300 296 289 278 261 257 269 285 288 294